Effingham, IL

3:49 PM CDT on March 27, 2017 (GMT -0500)
Effingham

Weather History for K1H2 - January, 2014

Change the Weather History Date:

Thursday, January 16, 2014

  Actual Average (KMTO) Record (KMTO)
Temperature  
Mean Temperature 30 °F -  
Max Temperature 39 °F 34 °F 67 °F (1990)
Min Temperature 22 °F 16 °F -18 °F (1977)
Degree Days  
Heating Degree Days 34    
Moisture  
Dew Point 22 °F    
Average Humidity 67    
Maximum Humidity 87    
Minimum Humidity 52    
Precipitation  
Precipitation 0.01 in - - ()
Sea Level Pressure  
Sea Level Pressure 29.78 in    
Wind  
Wind Speed 10 mph (SSW)    
Max Wind Speed 20 mph    
Max Gust Speed 30 mph    
Visibility 9 miles    
Events Snow    
Averages and records for this station are not official NWS values.
T = Trace of Precipitation, MM = Missing Value Source: NWS Daily Summary

Daily Weather History Graph

Daily Weather History Graph

Search for Another Location

Airport or City:

Trip Planner

Search our weather history database for the weather conditions in past years. The results will help you decide how hot, cold, wet, or windy it might be!

Date:

Astronomy

Jan. 16, 2014 Rise Set
Actual Time 7:11 AM CST 4:56 PM CST
Civil Twilight 6:42 AM CST 5:26 PM CST
Nautical Twilight 6:09 AM CST 5:59 PM CST
Astronomical Twilight 5:37 AM CST 6:31 PM CST
Moon 5:47 PM CST (1/16) 7:05 AM CST (1/16)
Length of Visible Light 10h 44m
Length of Day
9h 45m
Full, 100% of the Moon is Illuminated
Jan 16
Full
Jan 23
Last Quarter
Jan 30
New
Feb 6
First Quarter
Feb 14
Full

Hourly Weather History & Observations

Time (CST) Temp. Windchill Dew Point Humidity Pressure Visibility Wind Dir Wind Speed Gust Speed Precip Events Conditions
12:15 AM 22.5 °F 13.2 °F 13.3 °F 68% 29.99 in 10.0 mi South 8.1 mph - N/A   Overcast
12:35 AM 23.2 °F 14.1 °F 13.5 °F 66% 29.98 in 10.0 mi South 8.1 mph - N/A   Overcast
12:55 AM 23.7 °F 14.7 °F 13.6 °F 65% 29.96 in 10.0 mi South 8.1 mph - N/A   Overcast
1:15 AM 24.3 °F 15.4 °F 14.0 °F 65% 29.96 in 10.0 mi South 8.1 mph - N/A   Overcast
1:35 AM 24.8 °F 16.1 °F 14.2 °F 64% 29.95 in 10.0 mi South 8.1 mph - N/A   Overcast
1:55 AM 25.3 °F 17.6 °F 14.0 °F 62% 29.94 in 10.0 mi South 6.9 mph - N/A   Overcast
2:15 AM 25.7 °F 19.0 °F 14.2 °F 62% 29.94 in 10.0 mi South 5.8 mph - N/A   Overcast
2:35 AM 25.7 °F 17.1 °F 14.2 °F 62% 29.93 in 10.0 mi South 8.1 mph - N/A   Overcast
2:55 AM 26.2 °F 16.4 °F 14.2 °F 60% 29.92 in 10.0 mi South 10.4 mph - N/A   Overcast
3:15 AM 26.6 °F 17.5 °F 14.4 °F 60% 29.90 in 10.0 mi South 9.2 mph - N/A   Overcast
3:35 AM 27.0 °F 15.6 °F 14.0 °F 58% 29.89 in 10.0 mi South 13.8 mph 19.6 mph N/A   Overcast
3:55 AM 27.1 °F 17.5 °F 14.0 °F 58% 29.88 in 10.0 mi South 10.4 mph - N/A   Overcast
4:15 AM 27.3 °F 17.7 °F 14.4 °F 58% 29.87 in 10.0 mi South 10.4 mph 16.1 mph N/A   Overcast
4:35 AM 27.3 °F 19.1 °F 14.9 °F 60% 29.85 in 10.0 mi South 8.1 mph 16.1 mph N/A Snow Light Snow
4:55 AM 27.5 °F 17.4 °F 14.5 °F 58% 29.83 in 10.0 mi South 11.5 mph - N/A   Overcast
5:15 AM 27.1 °F 16.4 °F 17.1 °F 66% 29.83 in 3.0 mi South 12.7 mph 21.9 mph N/A Snow Light Snow
5:35 AM 26.2 °F 14.7 °F 19.9 °F 77% 29.82 in 2.0 mi South 13.8 mph - N/A Snow Light Snow
5:55 AM 25.7 °F 15.7 °F 21.0 °F 82% 29.80 in 1.2 mi South 10.4 mph - N/A Snow Light Snow
6:15 AM 25.7 °F 15.1 °F 22.1 °F 86% 29.80 in 1.2 mi South 11.5 mph 16.1 mph N/A Snow Light Snow
6:35 AM 26.1 °F 16.8 °F 22.6 °F 87% 29.79 in 1.0 mi South 9.2 mph 18.4 mph N/A Snow Snow
6:55 AM 26.2 °F 15.8 °F 22.8 °F 87% 29.80 in 0.8 mi South 11.5 mph 18.4 mph 0.01 in Snow Snow
7:15 AM 26.4 °F 16.6 °F 23.0 °F 87% 29.79 in 1.5 mi South 10.4 mph 18.4 mph N/A Snow Light Snow
7:35 AM 26.6 °F 15.7 °F 23.0 °F 86% 29.79 in 0.8 mi South 12.7 mph 17.3 mph N/A Snow Light Snow
7:55 AM 27.0 °F 16.7 °F 23.0 °F 85% 29.77 in 1.2 mi South 11.5 mph 18.4 mph N/A Snow Light Snow
8:15 AM 27.5 °F 15.9 °F 23.0 °F 83% 29.78 in 10.0 mi South 15.0 mph 20.7 mph N/A Snow Light Snow
8:35 AM 27.9 °F 17.3 °F 23.2 °F 83% 29.77 in 1.8 mi South 12.7 mph 19.6 mph N/A Snow Light Snow
8:55 AM 28.4 °F 18.0 °F 23.5 °F 82% 29.79 in 10.0 mi SSW 12.7 mph 19.6 mph N/A   Overcast
9:15 AM 29.1 °F 17.9 °F 23.0 °F 78% 29.77 in 10.0 mi South 15.0 mph 20.7 mph N/A   Overcast
9:35 AM 30.0 °F 19.5 °F 22.6 °F 74% 29.77 in 10.0 mi South 13.8 mph 18.4 mph N/A   Overcast
9:55 AM 29.5 °F 19.3 °F 22.3 °F 75% 29.78 in 10.0 mi SSW 12.7 mph 18.4 mph N/A   Overcast
10:15 AM 30.0 °F 20.5 °F 22.5 °F 73% 29.77 in 10.0 mi SSW 11.5 mph 16.1 mph N/A   Overcast
10:35 AM 30.9 °F 21.2 °F 22.5 °F 71% 29.77 in 10.0 mi SSW 12.7 mph - N/A   Overcast
10:55 AM 31.6 °F 22.6 °F 22.5 °F 69% 29.75 in 10.0 mi SSW 11.5 mph 17.3 mph N/A Snow Light Snow
11:15 AM 32.5 °F 24.8 °F 22.8 °F 67% 29.73 in 10.0 mi South 9.2 mph - N/A   Overcast
11:35 AM 32.9 °F 24.1 °F 22.8 °F 66% 29.71 in 10.0 mi SSW 11.5 mph 17.3 mph N/A   Overcast
11:55 AM 33.6 °F 25.0 °F 22.6 °F 64% 29.70 in 10.0 mi SSW 11.5 mph - N/A   Overcast
12:15 PM 33.8 °F 25.8 °F 22.6 °F 64% 29.70 in 10.0 mi SW 10.4 mph - N/A   Mostly Cloudy
12:35 PM 34.9 °F 26.2 °F 22.8 °F 61% 29.69 in 10.0 mi SSW 12.7 mph - N/A   Mostly Cloudy
12:55 PM 36.0 °F 27.5 °F 23.0 °F 59% 29.68 in 10.0 mi SSW 12.7 mph - N/A   Mostly Cloudy
1:15 PM 37.0 °F 29.3 °F 22.8 °F 56% 29.67 in 10.0 mi SW 11.5 mph - N/A   Mostly Cloudy
1:35 PM 37.4 °F 29.8 °F 22.8 °F 56% 29.67 in 10.0 mi SW 11.5 mph - N/A   Overcast
1:55 PM 37.9 °F 30.5 °F 23.7 °F 57% 29.67 in 10.0 mi SW 11.5 mph - N/A   Overcast
2:35 PM 38.3 °F 31.9 °F 24.8 °F 58% 29.67 in 10.0 mi SW 9.2 mph - N/A   Overcast
2:55 PM 38.7 °F 32.4 °F 25.0 °F 58% 29.68 in 10.0 mi SW 9.2 mph - N/A   Overcast
3:15 PM 39.2 °F 32.5 °F 25.2 °F 57% 29.68 in 10.0 mi SW 10.4 mph - N/A   Overcast
3:35 PM 38.8 °F 32.6 °F 25.9 °F 60% 29.68 in 10.0 mi SW 9.2 mph - N/A   Overcast
3:55 PM 39.2 °F 33.0 °F 26.1 °F 59% 29.69 in 10.0 mi SW 9.2 mph - N/A   Mostly Cloudy
4:15 PM 39.4 °F 32.7 °F 26.6 °F 60% 29.70 in 10.0 mi SW 10.4 mph - N/A   Mostly Cloudy
4:35 PM 38.7 °F 30.5 °F 26.4 °F 61% 29.71 in 10.0 mi West 13.8 mph 18.4 mph N/A   Scattered Clouds
4:55 PM 38.7 °F 30.1 °F 24.3 °F 56% 29.73 in 10.0 mi West 15.0 mph 20.7 mph N/A   Scattered Clouds
5:15 PM 38.5 °F 29.9 °F 22.3 °F 52% 29.73 in 10.0 mi West 15.0 mph 23.0 mph N/A   Mostly Cloudy
5:35 PM 37.9 °F 30.0 °F 22.1 °F 53% 29.73 in 10.0 mi West 12.7 mph 19.6 mph N/A   Scattered Clouds
5:55 PM 37.4 °F 29.3 °F 23.0 °F 56% 29.75 in 10.0 mi West 12.7 mph - N/A   Mostly Cloudy
6:15 PM 37.9 °F 32.1 °F 22.5 °F 54% 29.76 in 10.0 mi West 8.1 mph - N/A   Overcast
6:35 PM 37.8 °F 33.3 °F 23.5 °F 57% 29.77 in 10.0 mi WSW 5.8 mph - N/A   Overcast
6:55 PM 37.4 °F 31.4 °F 25.2 °F 61% 29.77 in 10.0 mi WSW 8.1 mph - N/A   Overcast
7:15 PM 37.0 °F 31.0 °F 24.6 °F 61% 29.77 in 10.0 mi WSW 8.1 mph - N/A   Overcast
7:35 PM 36.5 °F 31.8 °F 24.6 °F 62% 29.77 in 10.0 mi SW 5.8 mph - N/A   Overcast
7:55 PM 36.0 °F 31.1 °F 24.8 °F 64% 29.77 in 10.0 mi WSW 5.8 mph - N/A   Overcast
8:15 PM 35.2 °F 29.5 °F 24.8 °F 66% 29.77 in 10.0 mi WSW 6.9 mph - N/A   Mostly Cloudy
8:35 PM 34.3 °F 28.4 °F 25.2 °F 69% 29.77 in 10.0 mi SSW 6.9 mph - N/A   Mostly Cloudy
8:55 PM 34.0 °F 28.0 °F 25.9 °F 72% 29.78 in 10.0 mi SW 6.9 mph - N/A   Overcast
9:15 PM 33.8 °F 28.6 °F 26.2 °F 74% 29.77 in 10.0 mi SW 5.8 mph - N/A   Overcast
9:35 PM 34.7 °F 27.5 °F 26.8 °F 73% 29.77 in 10.0 mi SW 9.2 mph - N/A   Overcast
9:55 PM 34.9 °F 29.0 °F 27.0 °F 73% 29.77 in 10.0 mi SSW 6.9 mph - N/A   Overcast
10:15 PM 34.7 °F 28.8 °F 26.4 °F 72% 29.76 in 10.0 mi SSW 6.9 mph - N/A   Overcast
10:35 PM 34.7 °F 28.8 °F 26.1 °F 71% 29.76 in 10.0 mi SW 6.9 mph - N/A   Overcast
10:55 PM 34.7 °F 26.9 °F 25.7 °F 70% 29.75 in 10.0 mi SW 10.4 mph - N/A   Mostly Cloudy
11:15 PM 34.5 °F 27.3 °F 25.2 °F 69% 29.75 in 10.0 mi WSW 9.2 mph - N/A   Clear
11:35 PM 34.9 °F 25.7 °F 25.7 °F 69% 29.75 in 7.0 mi West 13.8 mph 24.2 mph N/A Snow Light Snow
11:55 PM 34.0 °F 22.7 °F 25.3 °F 71% 29.76 in 10.0 mi West 19.6 mph 29.9 mph N/A   Overcast